This is the latest recevied weather packets stored in our database for station/object AK4NG. If no packets are shown the sender has not sent any weather packets the latest 10 day(s).
| Time | Temp. | Humidity | Pressure | Rain* | Wind** | Luminosity | Snow |
|---|---|---|---|---|---|---|---|
| 1778179288 | 23.89° C | 82% | 1014 hPa | 0 mm | - | 850 W/m² | - |
| 1778178984 | 23.89° C | 82% | 1014 hPa | 0 mm | - | 220 W/m² | - |
| 1778178681 | 23.89° C | 80% | 1014.1 hPa | 0 mm | - | 412 W/m² | - |
| 1778178378 | 23.89° C | 83% | 1014 hPa | 0 mm | - | 437 W/m² | - |
| 1778178074 | 23.33° C | 82% | 1014.1 hPa | 0 mm | - | 503 W/m² | - |
| 1778177771 | 23.33° C | 81% | 1014 hPa | 0 mm | - | 415 W/m² | - |
| 1778177467 | 23.89° C | 80% | 1014.3 hPa | 0 mm | - | 344 W/m² | - |
| 1778177163 | 23.89° C | 82% | 1014.2 hPa | 0 mm | - | 609 W/m² | - |
| 1778176860 | 23.33° C | 85% | 1014.2 hPa | 0 mm | - | 1075 W/m² | - |
| 1778176556 | 22.78° C | 83% | 1014.3 hPa | 0 mm | - | 556 W/m² | - |
| 1778176254 | 23.33° C | 84% | 1014.5 hPa | 0 mm | - | 391 W/m² | - |
| 1778175951 | 22.78° C | 87% | 1014.5 hPa | 0 mm | - | 558 W/m² | - |
| 1778175649 | 22.78° C | 85% | 1014.7 hPa | 0 mm | - | 591 W/m² | - |
| 1778175345 | 22.22° C | 89% | 1014.5 hPa | 0 mm | - | 954 W/m² | - |
| 1778175043 | 21.67° C | 92% | 1014.8 hPa | 0 mm | - | 1059 W/m² | - |
| 1778174738 | 21.11° C | 95% | 1015 hPa | 0 mm | - | 643 W/m² | - |
| 1778174436 | 20.56° C | 95% | 1014.9 hPa | 0 mm | - | 334 W/m² | - |
| 1778174131 | 20.56° C | 96% | 1015 hPa | 0 mm | - | 375 W/m² | - |
| 1778173828 | 20° C | 96% | 1014.9 hPa | 0 mm | - | 179 W/m² | - |
| 1778173525 | 20.56° C | 96% | 1015.1 hPa | 0 mm | - | 160 W/m² | - |
| 1778173222 | 20° C | 96% | 1014.9 hPa | 0 mm | - | 181 W/m² | - |
| 1778172918 | 20.56° C | 97% | 1014.7 hPa | 0 mm | - | 200 W/m² | - |
| 1778172614 | 20° C | 97% | 1014.5 hPa | 0 mm | - | 231 W/m² | - |
| 1778172311 | 20° C | 97% | 1014.8 hPa | 0 mm | - | 196 W/m² | - |
| 1778172008 | 20° C | 98% | 1014.7 hPa | 0 mm | - | 195 W/m² | - |
* Rain latest hour (hover to see other rain measurements)
** Current wind speed in m/s (hover to see current wind gust speed)